Wind_Speed
24 24 24 25 25 25 25 26 26 26 25 24 24 22 20 19 19 18 19 23 27 33
19 20 22 23 24 24 23 24 24 25 26 26 24 24 23 21 21 21 22 23 24 26
17 19 20 21 23 24 25 26 27 26 27 27 26 25 26 26 25 23 22 23 24 25
14 18 19 20 21 22 22 23 26 27 28 30 32 30 28 27 28 30 31 28 25 24
11 16 21 23 22 22 25 25 27 30 31 32 34 34 34 36 35 32 31 33 34 31
14 19 24 27 26 26 28 30 32 33 35 38 39 39 39 38 39 38 35 34 33 34
17 20 25 30 31 32 32 34 35 35 35 34 35 34 34 33 34 35 35 33 34 34
18 23 28 30 32 34 36 37 36 33 32 30 30 28 27 28 30 32 34 34 33 32
20 26 27 29 32 36 39 38 37 35 33 36 33 29 30 30 31 32 33 34 34 33
19 21 24 30 36 37 38 38 35 34 32 36 36 34 35 34 35 35 35 36 36 36
17 22 28 30 32 34 33 32 32 32 32 34 33 33 35 35 36 36 37 36 36 35
20 23 25 29 31 31 32 32 33 30 31 32 33 32 32 32 32 32 34 34 35 35
21 23 26 28 30 30 30 30 30 31 30 32 34 32 30 29 30 31 31 31 32 32
20 23 24 26 28 30 32 28 29 29 30 31 31 32 28 28 30 29 31 31 31 30
Wind_Direction
48 46 44 39 35 31 24 18 12 9 11 12 10 3 347 328 318 305 296 292 285 276
42 34 29 24 20 17 10 6 5 360 355 357 359 359 357 351 338 321 310 301 292 285
33 25 18 11 8 3 359 354 351 351 348 345 345 344 343 340 339 332 324 315 305 295
26 16 9 4 360 354 351 346 341 338 339 336 334 335 334 329 326 325 321 318 315 308
360 359 360 356 351 346 339 337 332 330 329 326 323 323 324 322 319 315 312 312 311 308
344 346 347 345 340 336 333 330 326 324 323 322 319 317 316 315 313 311 308 303 299 299
333 334 333 331 331 331 330 326 324 320 316 313 310 309 309 311 310 308 303 300 296 293
323 322 320 320 322 322 321 319 317 314 310 307 303 302 304 304 303 299 296 293 289 289
308 309 314 317 318 316 315 314 313 311 309 307 304 305 303 299 296 291 289 287 288 287
310 313 314 313 312 314 314 314 311 309 308 304 304 307 305 302 299 294 290 287 285 285
312 313 314 315 315 314 313 309 307 305 303 302 303 307 305 302 297 292 288 286 285 284
314 315 316 314 315 312 309 307 305 304 303 301 301 305 303 301 297 291 288 287 285 283
318 318 315 315 313 311 306 299 300 298 298 298 298 303 303 300 295 290 289 289 288 287
317 315 314 314 316 313 307 300 296 297 300 297 293 295 300 298 294 291 290 286 288 289
Height
840 840 838 835 833 833 833 832 831 828 825 821 817 813 811 811 811 810 809 808 808 807
844 843 840 836 835 835 836 833 829 830 828 823 818 815 812 811 808 808 806 805 802 802
843 841 839 838 835 833 832 832 830 827 827 824 819 815 811 809 808 806 803 800 798 796
843 843 841 838 836 836 833 833 833 829 822 821 819 814 809 808 805 802 801 797 793 790
844 842 840 838 836 835 834 830 830 827 820 818 817 812 804 802 801 799 795 792 788 784
840 838 836 835 834 832 830 827 824 821 817 812 809 805 801 797 794 792 790 787 785 779
838 836 834 832 829 827 825 822 819 814 810 808 805 800 796 793 789 786 784 779 777 771
835 833 831 829 826 824 821 817 813 808 804 801 797 794 792 789 784 779 776 772 769 762
832 830 827 825 823 819 815 811 806 802 798 792 789 789 788 785 780 775 769 762 757 752
828 826 824 821 817 813 808 803 799 795 791 785 782 781 778 775 769 762 756 751 746 742
824 822 819 815 811 807 803 798 794 789 785 780 776 773 769 765 759 752 746 743 740 736
819 817 814 810 806 802 797 792 787 783 779 774 769 767 762 758 751 744 738 735 732 729
813 810 807 804 800 796 792 786 782 776 773 768 762 759 755 751 744 736 731 727 723 720
808 805 802 797 793 789 784 780 775 770 765 761 757 751 747 743 737 731 724 719 714 711